PEGASUS DEB, 24126

Orbit data source: Space-Track

PEGASUS DEB, 24126 is space debris in LEO originally from a launch on Thu, 19 May 1994 UTC launched from the Air Force Western Test Range (AFWTR). Debris objects in space refer to the collection of defunct objects orbiting the Earth. Examples of debris include non-operational satellites, rocket bodies, and fragments generated from explosions, collisions, or faulty payload assembly.

Loading next visibility...
Identifier
24126, 1994-029FZ
Orbit
LEO
Country
Flag of USUS
Related business
Manufacturer
Unknown
Mission
Spacecraft
Bus & Motor
Unknown
Mass
Unknown
Launch date (UTC)
1994-05-19 (32 years ago)
Launch vehicle
Unknown
Launch site
Air Force Western Test Range (AFWTR)
Object type
Payload
Rocket body
Debris
Shape & HBR
Unknown shape, 0.1 m
Radar Cross Section
Small (<0.1 m²)

Expand to show TLE details & history
Last TLE update: 13 hours ago

TLE from 13 hours ago
0 PEGASUS DEB
1 24126U 94029FZ  26048.60315898  .00004738  00000-0  93237-3 0  9998
2 24126  81.7983  97.9913 0275654 173.1196 340.5244 14.40975162536733
Epoch: 2026-02-17T14:28Z
TLE epoch observation values (Epoch: 2026-02-17T14:28:32.935Z)
Latitude
27.18276°
Longitude
-90.94822°
Altitude
573.841 km
Speed
7.674 km/s
True Right ascension
18h 15m 04s
True Declination
27° 02' 22"
Sunlit
Object was in daylight at epoch
Visualization orbit readout
Latitude
Unknown
Longitude
Unknown
Altitude
Unknown
Speed
Unknown
Apparent Right ascension
Unknown
Apparent Declination
Unknown
Sunlit
N/A
Visualization observer readout
Local Sidereal Time
06:17:56
Azimuth
Unknown
Elevation
Unknown
Doppler factor
Unknown
Orbital elements
Apogee altitude
948.937 km
Perigee altitude
555.826 km
Semi-major axis
7,130.519 km
Eccentricity
0.02757
Inclination
81.7983°
RAAN
97.9913°
Arg. of periapsis
173.1196°
True anomaly
339.43601°
Mean anomaly
340.5244°
Eccentric anomaly
339.9838°
Mean motion
3.60464 °/min
Orbital period
99.87 mins
BSTAR
0.00093237
Loading maneuver chart data...
Computing Atmospheric mass density...

Documentation

Showing up to 5 results
|